Flag for Norway Weather past 2 weeks in Tananger, Norway

Now
52 °F

Rain showers. Broken clouds.


Feels Like: 46 °F
Forecast: 55 / 59 °F
Wind: 20 mph from North

Location: Stavanger / Sola

Current Time: Sep 5, 2015 at 8:23:58 AM

Latest Report: Sep 5, 2015 at 7:50 AM


Visibility: N/A

Pressure: 29.62 "Hg

Humidity: 82%

Dew point: 46 °F

Location of TanangerLocation

Historic Weather in Tananger — Graph

°F

Tananger temperature yesterday

Maximum temperature yesterday: 63 °F (at 12:20 PM)
Minimum temperature yesterday: 52 °F (at 4:50 AM)
Average temperature yesterday: 58 °F

Past Weeks' High & Low Weather Summary

 TemperatureHumidityPressure
High79 °F (Aug 23, 2:20 PM)100% (Aug 26, 1:50 AM)30.21 "Hg (Aug 26, 1:50 AM)
Low52 °F (Sep 4, 4:50 AM)34% (Aug 23, 2:20 PM)29.45 "Hg (Sep 2, 1:20 PM)
Average63 °F72%29.83 "Hg
* Reported Aug 21 6:20 AM — Sep 5 6:50 AM, Tananger, Weather by CustomWeather, © 2015

Note: Actual official high and low records may vary slightly from our data, if they occured in-between our weather recording intervals... More about our weather records

Advertising

Tananger weather history for previous 24 hours

 ConditionsComfort  
Time TempWeatherWind HumidityBarometerVisibility
6:50 AM
Sat, Sep 5
52 °FLight rain. Partly cloudy.23 mph72%29.62 "HgN/A
6:20 AM52 °FPassing clouds.21 mph72%29.65 "HgN/A
5:50 AM52 °FPassing clouds.21 mph77%29.62 "HgN/A
4:50 AM52 °FPassing clouds.15 mph82%29.65 "HgN/A
3:50 AM52 °FLight rain. Passing clouds.26 mph82%29.65 "HgN/A
2:50 AM55 °FPassing clouds.18 mph72%29.65 "HgN/A
1:50 AM54 °FLight rain. Passing clouds.12 mph94%29.65 "HgN/A
12:50 AM54 °FPartly cloudy.7 mph88%29.68 "HgN/A
12:20 AM54 °FLight rain. Partly cloudy.7 mph82%29.71 "HgN/A
11:20 PM
Fri, Sep 4
57 °FPartly cloudy.10 mph72%29.74 "HgN/A
10:50 PM57 °FPassing clouds.15 mph72%29.74 "HgN/A
10:20 PM57 °FPartly cloudy.14 mph72%29.74 "HgN/A
9:50 PM57 °FPassing clouds.12 mph72%29.74 "HgN/A
9:20 PM57 °FPartly sunny.13 mph77%29.77 "HgN/A
8:50 PM57 °FPartly sunny.10 mph77%29.77 "HgN/A
8:20 PM57 °FPartly sunny.13 mph77%29.77 "HgN/A
7:50 PM59 °FPartly sunny.13 mph77%29.77 "HgN/A
6:50 PM59 °FBroken clouds.13 mph77%29.77 "HgN/A
6:20 PM59 °FScattered showers. Broken clouds.15 mph77%29.77 "HgN/A
5:50 PM61 °FPartly sunny.13 mph77%29.80 "HgN/A
5:20 PM61 °FPartly sunny.10 mph77%29.80 "HgN/A
4:50 PM63 °FScattered clouds.10 mph68%29.80 "HgN/A
4:20 PM63 °FScattered clouds.9 mph68%29.83 "HgN/A
3:50 PM63 °FScattered clouds.10 mph64%29.83 "HgN/A
3:20 PM63 °FScattered clouds.9 mph64%29.83 "HgN/A
2:50 PM63 °FScattered clouds.8 mph64%29.83 "HgN/A
2:20 PM63 °FScattered clouds.8 mph56%29.83 "HgN/A
1:50 PM63 °FScattered clouds.7 mph59%29.83 "HgN/A
1:20 PM63 °FPartly sunny.6 mph59%29.83 "HgN/A
12:50 PM63 °FBroken clouds.2 mph56%29.86 "HgN/A
12:20 PM63 °FBroken clouds.1 mph59%29.86 "HgN/A
11:50 AM61 °FPartly sunny.3 mph63%29.86 "HgN/A
11:20 AM59 °FPartly sunny.5 mph68%29.86 "HgN/A
10:50 AM59 °FPartly sunny.2 mph68%29.86 "HgN/A
10:20 AM59 °FPartly sunny.2 mph68%29.86 "HgN/A
9:50 AM57 °FBroken clouds.2 mph77%29.86 "HgN/A
9:20 AM57 °FBroken clouds.1 mph77%29.86 "HgN/A
8:50 AM55 °FBroken clouds.No wind82%29.86 "HgN/A
8:20 AM55 °FPartly sunny.1 mph82%29.86 "HgN/A
Weather by CustomWeather, © 2015

See weather overviewHow to use our weather pages